Domov               UVHVVR             MKGP            O straneh              
ZDRAVSTVENO VARSTVO RASTLIN
  MREŽA AGROMET. POSTAJ
 ► PROGNOSTIČNA OBVESTILA
AGROMETEOROLOŠKI PODATKI -
ARSO
OBVLADOVANJE TVEGANJ ZARADI
NEUGODNIH VREMENSKIH RAZMER
  ► NARAVNE NESREČE
  ► SUŠA/MOČA
  ► NAMAKANJE
  ► ŽLED (gozdarstvo)
KARTOGRAFSKI PRIKAZI
SPLETNE POVEZAVE
PROJEKTI IN PUBLIKACIJE

AGROMETEOROLOŠKA MREŽA: VREMENSKE POSTAJE IN FENOLOŠKA OPAZOVANJA

Pregled podatkov za lokacijo Labor, meteorološka postaja 42414

Pregled senzorjev na lokaciji

ID Ime Zadnja
vrednost
Datum
zadnje
spremembe
Tip
senzorja
2099 Temperatura 2 m (°C) 8 °C 15.12.2017 20:00 50YA
2100 Relativna vlaga 2 m (% RH) 94,91 % RH 15.12.2017 20:00 50YA
2101 Omočenost lista (U) 3 U 15.12.2017 20:00 A730WET
2102 Padavine (mm) 2 mm 15.12.2017 20:00 Rain-O-Matic

Pregled podatkov zadnjih 24 ur

Zap.
št.
Datum in čas Labor
Omočenost
lista
Padavine Relativna
vlaga
2
m
Temperatura
2
m
0 15.12.2017 20:00 3 2 94,91 8
1 15.12.2017 19:30 3 0 92,75 8,15
2 15.12.2017 19:00 2 0 93,55 8,01
3 15.12.2017 18:30 3 1,2 94,61 8
4 15.12.2017 18:00 3 0,6 91,31 8,24
5 15.12.2017 17:30 4 1,4 87,16 8,64
6 15.12.2017 17:00 5 0,2 87,3 8,76
7 15.12.2017 16:30 5 0,2 87,19 8,9
8 15.12.2017 16:00 8 0,2 82,86 9,41
9 15.12.2017 15:30 7 0 75,63 10,31
10 15.12.2017 15:00 2 0 72,52 10,83
11 15.12.2017 14:30 0 0 71,94 10,98
12 15.12.2017 14:00 0 0 70,82 11,16
13 15.12.2017 13:30 0 0 67,93 11,38
14 15.12.2017 13:00 0 0 67,21 11,61
15 15.12.2017 12:30 0 0 64,93 11,95
16 15.12.2017 12:00 0 0 65,81 11,93
17 15.12.2017 11:30 0 0 66,8 11,65
18 15.12.2017 11:00 0 0 65,44 11,61
19 15.12.2017 10:30 0 0 67,04 11,51
20 15.12.2017 10:00 0 0 68,92 11,33
21 15.12.2017 09:30 0 0 67,2 11,34
22 15.12.2017 09:00 0 0 67,91 11,22
23 15.12.2017 08:30 0 0 68,87 11,2
24 15.12.2017 08:00 0 0 71,56 11,02
25 15.12.2017 07:30 0 0 70,12 11,03
26 15.12.2017 07:00 0 0 70,36 10,84
27 15.12.2017 06:30 0 0 69,15 10,9
28 15.12.2017 06:00 0 0 73,28 10,68
29 15.12.2017 05:30 0 0 71,49 10,7
30 15.12.2017 05:00 0 0 71,68 10,55
31 15.12.2017 04:30 0 0 71,6 10,38
32 15.12.2017 04:00 0 0 68,06 10,52
33 15.12.2017 03:30 0 0 71,73 10,3
34 15.12.2017 03:00 0 0 74,47 10,01
35 15.12.2017 02:30 0 0 76,8 9,7
36 15.12.2017 02:00 0 0 75,37 9,73
37 15.12.2017 01:30 0 0 73,25 9,85
38 15.12.2017 01:00 0 0 74,51 9,81
39 15.12.2017 00:30 0 0 76,7 9,81
40 15.12.2017 00:00 0 0 79,64 9,48
41 14.12.2017 23:30 0 0 81,65 9,14
42 14.12.2017 23:00 0 0 84,95 8,91
43 14.12.2017 22:30 0 0 84,79 8,83
44 14.12.2017 22:00 0 0 81,34 9,08
45 14.12.2017 21:30 0 0 82,24 9,1
46 14.12.2017 21:00 0 0 84,14 9,12
© 2011 Ministrstvo za kmetijstvo, gozdarstvo in prehrano. Vse pravice pridržane.